Tracking 28790 objects as of 19-Apr-2024
HD Live streaming from Space Station
objects crossing your sky now

INSAT 4A

Track INSAT 4A now!
INSAT 4A is classified as:


NORAD ID: 28911
Int'l Code: 2005-049A
Perigee: 36,086.5 km
Apogee: 36,108.4 km
Inclination: 4.4 °
Period: 1,451.6 minutes
Semi major axis: 42468 km
RCS: 12.5892 m2 (large)
Launch date: December 21, 2005
Source: India (IND)
Launch site: FRENCH GUIANA (FRGUI)
Your satellite tracking list
Your tracking list is empty




NASA's NSSDC Master Catalog

Two Line Element Set (TLE):
1 28911U 05049A   24109.64991903  .00000077  00000-0  00000-0 0  9990
2 28911   4.4062  81.2838 0002584  71.9676 149.7242  0.99198092 37594
Source of the keplerian elements: AFSPC